This is the latest recevied weather packets stored in our database for station/object N9XRG. If no packets are shown the sender has not sent any weather packets the latest 10 day(s).
| Time | Temp. | Humidity | Pressure | Rain* | Wind** | Luminosity | Snow |
|---|---|---|---|---|---|---|---|
| 1778100884 | 15° C | 40% | 1012.9 hPa | 0 mm | - | 282 W/m² | - |
| 1778100580 | 15° C | 38% | 1013.1 hPa | 0 mm | - | 281 W/m² | - |
| 1778100278 | 15° C | 41% | 1013.2 hPa | 0 mm | - | 740 W/m² | - |
| 1778099975 | 15° C | 41% | 1013.2 hPa | 0 mm | - | 272 W/m² | - |
| 1778099673 | 15° C | 40% | 1013.2 hPa | 0 mm | - | 414 W/m² | - |
| 1778099369 | 15° C | 46% | 1013.2 hPa | 0 mm | - | 700 W/m² | - |
| 1778099067 | 15.56° C | 38% | 1013.1 hPa | 0 mm | - | 380 W/m² | - |
| 1778098763 | 15° C | 38% | 1012.9 hPa | 0 mm | - | 732 W/m² | - |
| 1778098461 | 15° C | 42% | 1013.2 hPa | 0 mm | - | 848 W/m² | - |
| 1778098157 | 15° C | 43% | 1013.2 hPa | 0 mm | - | 459 W/m² | - |
| 1778097853 | 15° C | 43% | 1013.1 hPa | 0 mm | - | 339 W/m² | - |
| 1778097550 | 15° C | 42% | 1013.3 hPa | 0 mm | - | 461 W/m² | - |
| 1778097247 | 15° C | 40% | 1013.2 hPa | 0 mm | - | 445 W/m² | - |
| 1778096944 | 14.44° C | 44% | 1013.3 hPa | 0 mm | - | 768 W/m² | - |
| 1778096641 | 14.44° C | 42% | 1013.4 hPa | 0 mm | - | 390 W/m² | - |
| 1778096338 | 15° C | 41% | 1013.5 hPa | 0 mm | - | 367 W/m² | - |
| 1778096034 | 14.44° C | 41% | 1013.4 hPa | 0 mm | - | 415 W/m² | - |
| 1778095731 | 14.44° C | 41% | 1013.4 hPa | 0 mm | - | 426 W/m² | - |
| 1778095428 | 14.44° C | 43% | 1013.4 hPa | 0 mm | - | 735 W/m² | - |
| 1778095125 | 13.89° C | 45% | 1013.6 hPa | 0 mm | - | 421 W/m² | - |
| 1778094821 | 13.89° C | 43% | 1013.5 hPa | 0 mm | - | 400 W/m² | - |
| 1778094518 | 13.89° C | 44% | 1013.4 hPa | 0 mm | - | 463 W/m² | - |
| 1778094214 | 13.89° C | 39% | 1013.4 hPa | 0 mm | - | 446 W/m² | - |
| 1778093911 | 13.89° C | 46% | 1013.5 hPa | 0 mm | - | 359 W/m² | - |
| 1778093608 | 13.33° C | 45% | 1013.4 hPa | 0 mm | - | 420 W/m² | - |
* Rain latest hour (hover to see other rain measurements)
** Current wind speed in m/s (hover to see current wind gust speed)